Location: Newark
(45.6000°N, 12.8833°E)
Time: 22:57:02
(UTC+00:00)

Vanguard 3 - Pass Details

Date: 27 November 2019
Orbit: 508 x 3263 km, 33.3° (Epoch: 06 December)

Event Time Altitude Azimuth Distance (km) Brightness Sun altitude
Rises 15:39:25 0° 275° (W) 7,100 13.0 -2.5°
Reaches altitude 10° 15:44:32 10° 269° (W) 6,182 12.9 -3.3°
Maximum altitude 16:01:47 39° 210° (SSW) 3,963 11.2 -6.0°
Drops below altitude 10° 16:15:34 10° 148° (SSE) 4,957 11.1 -8.2°
Sets 16:19:10 0° 141° (SE) 5,622 11.3 -8.8°
